Dewpoint
62 62 62 62 63 63 62 61 60 59 59 58 57 57 56 56 56 56 56 58 58 58 56 56 57 57 56 56 56 55 54 53 52 52 52 52 51 51 51 51 50 48 48
61 60 61 61 62 63 60 59 59 59 57 57 56 56 55 55 55 56 55 56 58 57 58 57 56 55 55 56 55 54 54 52 52 52 52 52 51 51 50 50 49 48 47
61 61 60 60 61 62 59 58 58 57 56 56 55 55 55 55 54 55 54 55 56 56 58 58 57 56 55 55 54 53 52 52 52 52 52 51 51 51 50 49 48 47 45
61 62 60 61 61 59 57 57 56 55 55 54 54 54 53 54 54 55 54 53 55 54 57 58 57 57 56 54 53 53 53 52 52 51 51 51 51 50 50 49 47 46 44
62 61 61 60 60 58 56 56 56 55 54 54 54 53 53 53 54 53 53 54 55 54 54 56 56 55 55 54 53 52 52 52 52 51 51 50 50 49 49 48 47 45 45
61 61 61 60 59 57 55 55 55 55 54 53 52 53 53 53 53 53 53 53 54 54 54 53 54 53 54 55 53 53 53 52 52 51 50 49 49 48 48 48 48 47 45
61 60 60 59 58 56 55 54 54 54 54 54 52 52 53 54 54 54 54 53 53 54 54 53 52 52 53 54 55 54 53 53 52 52 51 50 49 49 48 48 47 47 47
62 61 59 59 58 57 55 53 53 53 53 53 51 51 49 51 53 53 53 53 53 53 54 54 54 53 52 53 53 55 54 54 53 53 52 52 52 51 50 49 48 47 47
61 61 60 59 58 57 54 52 52 52 52 53 53 50 49 48 50 52 53 53 53 53 53 53 54 54 54 53 54 54 55 55 55 55 54 54 54 54 53 51 50 49 49
58 60 60 59 57 56 55 53 52 52 52 51 52 51 52 51 48 48 51 52 53 53 53 52 53 53 54 54 54 53 54 54 54 56 57 57 56 56 55 54 54 53 52
56 57 59 58 57 56 55 54 52 51 52 52 51 51 50 52 51 49 47 50 52 52 52 53 52 53 53 54 54 54 53 52 52 53 55 56 57 57 57 56 56 55 55
56 56 59 58 57 56 56 55 53 51 51 52 52 50 50 49 48 48 48 49 49 50 52 52 53 53 53 53 53 52 52 51 51 52 53 54 54 56 57 58 57 57 56
56 56 59 58 57 56 56 55 53 53 53 53 52 51 51 50 50 49 45 46 49 51 52 53 53 52 52 53 53 52 52 51 51 51 51 52 53 53 54 55 56 57 58
54 57 58 58 57 56 55 55 54 53 53 53 53 53 52 52 51 48 44 41 42 46 50 49 52 53 54 53 54 53 53 51 51 50 51 51 52 52 53 54 54 55 55
55 57 57 57 56 55 55 54 53 52 52 53 52 52 53 52 51 50 48 47 43 42 44 48 49 52 53 53 54 54 54 53 51 50 50 50 51 51 52 52 53 53 54
55 55 55 54 54 54 54 54 53 52 52 53 53 53 52 51 51 51 51 51 50 48 44 45 49 51 52 52 52 52 53 53 52 51 50 50 50 50 50 51 51 52 52
54 54 54 54 53 53 54 53 52 52 50 49 51 53 52 51 51 51 51 50 49 50 47 45 47 50 53 52 52 53 52 51 51 49 49 48 48 48 48 49 49 50 50
53 54 53 53 53 52 53 53 53 52 51 50 50 51 51 51 50 51 51 51 51 51 48 46 48 50 51 53 53 52 52 52 52 51 50 49 48 47 47 46 47 47 48
53 53 53 52 52 53 53 54 53 53 52 52 52 51 51 51 51 51 52 51 52 52 52 49 48 49 51 52 52 52 52 52 52 52 51 50 49 49 48 48 47 46 46
52 52 52 52 53 52 52 53 53 53 53 53 53 53 52 51 51 51 51 51 51 51 51 51 50 50 50 51 52 51 51 52 51 51 51 51 51 50 49 49 48 47 47
51 51 51 51 52 52 52 52 51 51 52 52 52 52 53 53 51 51 51 50 50 50 50 50 50 50 50 51 51 51 51 51 51 52 51 52 52 52 52 49 48 46 46
51 50 50 50 51 51 50 50 51 52 51 51 50 51 51 50 50 49 49 49 49 50 50 49 48 48 48 49 49 49 50 49 48 52 51 51 52 52 51 51 45 44 44
52 51 50 50 50 50 48 48 48 50 51 51 51 51 51 51 50 51 49 47 47 47 47 48 48 48 48 48 49 48 49 49 49 50 50 49 42 40 38 39 39 39 38
53 52 52 51 51 44 39 44 46 48 50 50 51 51 51 50 50 50 50 50 49 49 48 46 48 49 49 41 43 46 48 49 46 37 37 43 34 31 32 32 34 34 34
43 39 38 40 43 35 35 36 41 45 47 48 49 49 44 46 46 43 48 48 47 48 35 37 34 31 31 31 32 38 41 43 42 33 28 32 31 28 26 26 30 30 30
36 35 33 32 32 32 33 35 37 43 46 46 35 33 32 34 36 38 43 44 45 45 34 30 28 27 27 27 26 27 30 35 37 31 26 27 27 28 23 25 26 27 27
Wind_Speed
15 15 12 11 11 12 18 17 15 16 17 18 16 16 15 14 14 12 15 18 19 18 19 19 19 19 19 18 19 18 18 17 17 17 16 15 15 15 15 15 15 15 14
13 12 13 12 13 14 16 18 18 17 17 17 16 14 15 14 15 14 14 17 20 19 18 19 19 18 18 17 17 17 18 17 16 16 16 16 15 14 14 14 14 14 13
15 14 13 17 15 17 20 18 14 11 17 16 16 14 13 15 15 15 15 13 16 18 18 19 19 18 17 17 17 17 16 16 16 16 16 15 14 14 13 13 13 12 12
13 11 5 17 18 17 19 20 19 15 14 17 16 14 12 12 14 16 14 15 13 13 15 17 18 19 18 17 16 16 16 16 16 16 15 15 15 14 13 13 13 12 12
14 11 10 11 15 17 17 17 16 18 16 16 15 14 12 13 15 14 16 15 14 13 13 17 18 18 18 17 17 17 17 17 16 16 15 15 15 15 15 14 14 13 12
15 13 10 12 15 14 15 15 17 12 15 18 16 13 11 11 12 13 15 14 14 13 13 14 14 15 18 18 18 18 18 18 18 17 16 16 16 16 16 16 16 15 14
18 16 13 15 14 16 20 19 18 20 13 14 16 10 7 8 10 11 12 14 15 15 15 15 15 13 16 17 17 19 19 18 18 18 18 18 18 18 18 18 18 18 17
15 20 18 18 17 15 19 22 21 20 16 21 14 15 6 4 8 11 13 14 16 15 14 15 16 16 15 16 19 20 21 20 20 20 20 20 19 20 20 21 20 20 20
10 15 19 21 21 19 20 25 24 24 18 20 19 10 7 6 12 10 14 15 16 15 16 17 17 16 17 15 16 20 21 20 18 21 22 22 23 23 23 23 23 23 23
12 9 17 19 21 19 20 22 23 23 23 24 18 6 9 11 11 8 10 15 16 17 18 16 17 19 19 17 18 19 20 25 23 21 19 23 25 26 27 27 27 26 27
13 14 12 21 20 18 21 23 21 24 21 24 19 10 8 5 9 5 8 10 14 16 18 19 18 18 20 18 17 19 25 26 28 28 25 24 22 26 28 29 29 30 30
10 15 17 18 18 20 21 23 24 21 20 21 19 16 14 11 10 7 4 9 13 14 19 17 16 17 18 19 20 22 26 29 30 30 29 29 28 28 28 29 31 32 32
8 16 15 19 17 19 19 20 21 21 21 23 24 19 12 14 15 12 11 6 8 12 11 18 18 17 19 18 20 25 27 31 32 32 32 31 31 31 31 32 32 34 34
7 9 12 13 17 19 20 20 22 23 21 20 22 15 14 12 14 16 16 19 19 12 13 6 12 17 17 18 21 24 24 27 32 31 32 31 30 30 31 33 34 36 36
7 8 10 12 13 18 19 20 18 20 20 18 17 16 22 17 13 7 11 13 16 20 16 10 12 15 14 15 20 18 18 21 27 31 32 32 32 31 32 32 33 34 35
9 10 11 11 12 12 13 15 13 17 18 16 16 23 22 17 16 14 14 12 13 14 21 11 12 11 15 12 17 19 19 22 25 28 31 32 33 33 34 34 35 37 35
11 11 11 14 15 15 14 16 16 18 21 21 20 20 22 17 14 11 13 14 16 21 25 19 15 13 11 17 18 19 19 17 18 25 33 34 35 35 34 36 35 35 35
12 13 14 12 13 15 16 18 15 17 21 22 22 17 16 12 16 15 15 18 21 22 25 26 21 16 17 17 21 19 18 17 20 24 30 33 35 36 38 36 34 35 35
17 15 15 15 14 15 16 16 17 16 18 18 17 17 21 20 19 14 14 17 17 18 15 21 23 19 18 15 18 18 21 20 20 27 33 36 37 37 34 32 34 33 33
17 18 18 19 19 19 17 17 17 17 18 19 20 22 22 21 22 20 20 21 17 16 17 21 22 22 21 21 20 22 22 22 24 22 25 29 27 28 31 33 35 34 33
16 17 17 17 17 18 18 20 19 20 20 21 22 23 24 26 28 27 25 24 19 20 21 22 22 21 23 22 25 24 25 25 25 21 22 21 21 20 21 24 28 26 27
14 15 17 18 18 18 20 24 22 22 23 24 25 25 25 26 29 31 35 34 26 25 26 25 25 27 30 26 25 25 26 26 29 20 25 26 20 21 19 13 7 9 14
13 15 15 15 17 18 21 27 30 24 22 24 25 24 24 23 26 27 30 37 35 38 38 34 33 31 31 29 28 28 29 30 31 24 18 24 2 1 8 6 4 7 11
8 13 14 15 16 6 17 17 28 26 21 22 22 24 24 25 24 24 26 26 26 25 27 26 32 33 26 11 12 15 20 25 14 1 2 17 3 4 8 12 19 20 21
11 14 16 16 13 15 19 15 5 15 20 22 19 12 9 13 11 12 20 24 24 19 14 13 17 17 17 19 10 7 18 18 17 1 10 2 4 9 10 11 14 23 22
14 15 18 19 18 16 22 20 9 1 11 3 14 15 19 11 8 4 12 15 18 12 11 13 13 18 20 20 25 17 7 13 9 1 8 3 3 3 4 5 9 10 11
Wind_Direction
199 210 202 192 188 152 155 153 153 152 155 156 163 160 162 164 164 164 163 157 157 161 159 157 152 153 154 149 149 150 152 158 155 153 150 149 146 142 142 142 137 136 136
207 210 207 199 191 162 158 153 155 160 159 161 166 168 167 168 169 169 165 164 159 160 164 163 162 159 159 157 154 161 164 165 160 159 158 158 156 154 153 153 149 146 144
210 212 212 210 183 165 150 147 139 137 162 165 168 168 170 170 171 168 171 156 172 164 169 162 163 166 166 165 167 173 171 168 166 168 168 167 167 166 166 165 162 159 155
212 198 185 191 154 143 147 151 147 144 163 165 165 170 169 173 175 167 171 173 173 174 175 166 165 167 171 175 177 180 177 176 176 178 178 179 177 178 180 180 178 176 173
198 192 170 129 146 137 142 142 143 152 157 165 167 165 175 171 185 172 179 181 179 181 186 176 174 169 173 177 186 189 186 184 185 187 189 190 189 189 193 195 192 191 191
182 172 146 150 137 126 134 140 144 150 160 164 166 164 168 182 182 183 183 186 187 187 190 186 182 184 181 186 194 200 195 192 194 196 195 198 201 201 203 206 207 205 206
177 173 149 159 153 149 151 151 149 156 161 158 145 147 155 179 185 187 188 193 197 199 195 200 199 199 195 196 202 205 207 201 201 205 204 206 210 212 213 215 217 218 217
187 180 166 167 168 157 153 157 163 165 162 165 170 156 154 161 200 200 198 200 204 203 201 207 206 205 206 206 210 212 215 211 207 210 213 214 216 219 222 224 225 226 227
201 191 174 173 171 168 170 170 174 175 169 179 167 163 157 185 164 203 207 207 206 212 214 209 217 219 212 212 217 218 221 229 227 218 217 216 216 220 224 230 232 232 234
210 204 181 175 169 172 173 179 179 184 166 180 180 208 192 152 180 177 213 212 214 215 220 217 218 221 223 218 217 228 218 226 233 239 238 229 223 223 225 227 230 232 234
204 206 189 175 173 178 179 175 182 190 189 182 183 175 172 168 164 153 178 191 218 224 225 222 221 225 225 220 219 224 225 226 229 235 240 243 243 237 233 233 234 235 234
204 213 187 181 179 176 179 178 184 189 188 191 187 186 172 173 172 159 126 181 206 219 223 226 222 223 228 228 226 226 224 228 231 233 236 239 244 246 245 243 241 241 241
208 202 189 181 176 184 184 181 183 186 191 192 188 185 174 191 178 188 166 184 208 212 210 219 219 219 228 227 232 227 228 228 230 232 235 237 240 243 245 248 249 248 246
196 188 201 176 175 185 182 183 187 191 198 192 182 174 182 208 195 197 209 207 227 238 220 198 221 215 219 229 232 227 235 231 232 234 237 240 241 242 244 246 248 249 251
174 172 164 182 176 180 186 187 191 194 190 176 178 191 210 213 218 207 198 203 218 227 234 226 219 213 206 228 234 234 234 238 236 238 240 241 242 243 243 245 248 250 250
160 161 171 164 164 168 175 178 181 190 188 180 172 201 211 211 220 214 217 190 198 232 259 233 233 215 195 212 240 224 228 232 238 237 242 245 243 243 242 244 246 247 247
171 172 168 174 177 180 171 178 187 187 195 198 206 217 219 220 222 217 230 234 235 235 250 253 242 233 214 214 219 223 227 227 238 243 243 243 246 246 243 243 242 245 245
180 187 184 180 176 179 187 189 179 194 202 205 211 216 219 219 233 227 226 230 237 237 243 255 250 241 232 225 235 233 229 239 248 245 242 248 249 247 247 244 247 248 246
195 194 192 187 186 186 191 193 193 187 192 201 203 210 224 224 226 220 223 226 224 237 239 249 254 250 245 239 238 240 243 244 238 237 240 241 242 243 248 251 253 251 250
195 198 200 202 201 198 196 199 203 209 215 218 219 220 223 220 224 225 229 234 229 233 237 243 255 257 253 248 244 255 253 241 251 249 243 246 250 253 251 251 251 250 250
204 206 205 210 212 212 213 210 204 206 212 220 227 234 233 232 227 224 225 233 232 236 241 248 253 258 258 253 246 251 254 259 258 249 251 253 252 251 249 249 254 255 254
216 214 213 212 212 215 213 208 213 218 220 229 237 240 239 234 231 226 228 233 230 230 239 247 252 250 254 256 258 257 257 260 264 251 255 257 253 252 262 260 293 290 272
226 225 228 227 230 229 218 215 217 228 233 234 237 238 239 237 234 236 236 238 238 239 240 249 250 248 252 251 255 257 254 253 254 256 259 259 76 182 13 15 39 84 99
247 227 227 224 234 47 16 252 226 221 230 237 239 242 242 246 244 239 243 247 243 245 249 250 255 262 276 305 286 272 268 267 266 24 308 251 117 75 48 50 63 74 77
30 52 42 50 90 48 22 17 338 232 241 242 245 271 304 277 297 307 260 251 251 251 67 74 78 57 42 33 22 312 279 277 270 212 21 43 63 86 69 49 57 73 72
66 71 61 54 51 45 24 18 11 264 234 238 67 41 25 7 341 330 258 251 256 248 142 98 75 57 48 38 31 26 358 263 256 200 10 68 108 117 106 37 48 49 62